Tracking 20621 objects as of 31-Mar-2020
HD Live streaming from Space Station
objects crossing your sky now

RADUGA 26

Track RADUGA 26 now!
RADUGA 26 is classified as:


NORAD ID: 21016
Int'l Code: 1990-112A
Perigee: 35,753.7 km
Apogee: 35,824.3 km
Inclination: 14.7 °
Period: 1,435.9 minutes
Semi major axis: 42160 km
RCS: 2.5118 m2 (large)
Launch date: December 20, 1990
Source: Commonwealth of Independent States (former USSR) (CIS)
Launch site: TYURATAM MISSILE AND SPACE COMPLEX (TTMTR)
aabbcc
Your satellite tracking list
Your tracking list is empty




NASA's NSSDC Master Catalog

Two Line Element Set (TLE):
1 21016U 90112A   20090.80049712 +.00000064 +00000-0 +00000-0 0  9995
2 21016 014.7096 355.9034 0008378 034.9013 140.0728 01.00288645107503
Source of the keplerian elements: AFSPC